Location: Zagreb
(45.8000°N, 16.0000°E)
Time: 14:26:18
(UTC+02:00)

Courier 1B Rocket - Pass Details

Date: 26 January 2022
Orbit: 920 x 1202 km, 28.2° (Epoch: 17 May)

Event Time Altitude Azimuth Distance (km) Brightness Sun altitude
Exits shadow 05:17:45 10° 211° (SSW) 2,798 7.1 -22.0°
Reaches altitude 10° 05:18:39 10° 204° (SSW) 2,750 7.2 -21.9°
Maximum altitude 05:18:57 10° 201° (SSW) 2,743 7.2 -21.8°
Drops below altitude 10° 05:19:16 10° 198° (SSW) 2,741 7.2 -21.8°
Sets 05:25:27 0° 154° (SSE) 3,606 8.4 -20.7°
